| time (UTC) | temp F | wind direction | speed MPH | gust MPH | rain 1hr in | rain 24hr in | rain mn in | humidity % | barometer mb |
| 20260902034604 | 95 | 190 | 0.0 | 0.0 | 0.00 | 0.00 | 0.00 | 35 | 1010.2 |
| 20260902034104 | 94 | 190 | 0.0 | 0.0 | 0.00 | 0.00 | 0.00 | 35 | 1010.2 |
| 20260902033604 | 94 | 190 | 0.0 | 0.0 | 0.00 | 0.00 | 0.00 | 35 | 1010.1 |
| 20260902033324 | 94 | 190 | 0.0 | 0.0 | 0.00 | 0.00 | 0.00 | 35 | 1010.0 |
| 20260902032604 | 94 | 237 | 0.0 | 0.0 | 0.00 | 0.00 | 0.00 | 36 | 1009.8 |
| 20260902032101 | 94 | 238 | 0.0 | 0.0 | 0.00 | 0.00 | 0.00 | 35 | 1009.8 |
| 20260902031601 | 95 | 238 | 0.0 | 0.0 | 0.00 | 0.00 | 0.00 | 35 | 1009.7 |
| 20260902031323 | 95 | 238 | 0.0 | 0.0 | 0.00 | 0.00 | 0.00 | 35 | 1009.6 |
| 20260902030822 | 95 | 238 | 0.0 | 0.0 | 0.00 | 0.00 | 0.00 | 35 | 1009.5 |
| 20260902025601 | 95 | 238 | 0.0 | 0.0 | 0.00 | 0.00 | 0.00 | 34 | 1009.3 |
| 20260902025102 | 95 | 238 | 0.0 | 0.0 | 0.00 | 0.00 | 0.00 | 34 | 1009.3 |
| 20260902024601 | 95 | 238 | 0.0 | 0.0 | 0.00 | 0.00 | 0.00 | 34 | 1009.2 |
| 20260902024327 | 95 | 238 | 0.0 | 0.0 | 0.00 | 0.00 | 0.00 | 34 | 1009.2 |
| 20260902023558 | 95 | 238 | 0.0 | 0.0 | 0.00 | 0.00 | 0.00 | 34 | 1009.2 |
| 20260902023056 | 96 | 238 | 0.0 | 0.0 | 0.00 | 0.00 | 0.00 | 33 | 1009.2 |
| 20260902022554 | 96 | 238 | 0.0 | 0.0 | 0.00 | 0.00 | 0.00 | 33 | 1009.2 |
| 20260902022051 | 96 | 238 | 0.0 | 0.0 | 0.00 | 0.00 | 0.00 | 33 | 1009.1 |
| 20260902021550 | 96 | 238 | 0.0 | 0.0 | 0.00 | 0.00 | 0.00 | 33 | 1009.1 |
| 20260902021048 | 96 | 238 | 0.0 | 0.0 | 0.00 | 0.00 | 0.00 | 32 | 1009.1 |
| 20260902020548 | 96 | 238 | 0.0 | 0.0 | 0.00 | 0.00 | 0.00 | 32 | 1009.1 |
| 20260902020309 | 96 | 238 | 0.0 | 0.0 | 0.00 | 0.00 | 0.00 | 32 | 1009.1 |
| 20260902015546 | 97 | 238 | 0.0 | 0.0 | 0.00 | 0.00 | 0.00 | 32 | 1009.0 |
| 20260902015046 | 97 | 238 | 0.0 | 0.0 | 0.00 | 0.00 | 0.00 | 32 | 1009.0 |
| 20260902014544 | 97 | 145 | 0.0 | 0.0 | 0.00 | 0.00 | 0.00 | 33 | 1008.9 |
| 20260902014041 | 97 | 144 | 0.0 | 0.0 | 0.00 | 0.00 | 0.00 | 32 | 1008.9 |
| 20260902013542 | 97 | 145 | 0.0 | 0.0 | 0.00 | 0.00 | 0.00 | 32 | 1008.9 |
| 20260902013042 | 97 | 145 | 0.0 | 0.0 | 0.00 | 0.00 | 0.00 | 32 | 1009.0 |
| 20260902012542 | 98 | 144 | 0.0 | 0.0 | 0.00 | 0.00 | 0.00 | 31 | 1009.0 |
| 20260902012040 | 98 | 145 | 0.0 | 0.0 | 0.00 | 0.00 | 0.00 | 31 | 1009.0 |
| 20260902011536 | 98 | 152 | 0.0 | 0.0 | 0.00 | 0.00 | 0.00 | 32 | 1009.0 |
| 20260902011300 | 98 | 239 | 0.0 | 0.0 | 0.00 | 0.00 | 0.00 | 31 | 1009.0 |
| 20260902010532 | 98 | 257 | 0.0 | 0.0 | 0.00 | 0.00 | 0.00 | 31 | 1009.1 |
| 20260902010252 | 98 | 150 | 0.0 | 0.0 | 0.00 | 0.00 | 0.00 | 32 | 1009.2 |
| 20260902005532 | 98 | 150 | 0.0 | 0.0 | 0.00 | 0.00 | 0.00 | 32 | 1009.2 |
| 20260902005030 | 98 | 150 | 0.0 | 0.0 | 0.00 | 0.00 | 0.00 | 31 | 1009.2 |
| 20260902004758 | 98 | 120 | 0.0 | 0.0 | 0.00 | 0.00 | 0.00 | 31 | 1009.2 |
| 20260902004031 | 98 | 208 | 0.0 | 0.0 | 0.00 | 0.00 | 0.00 | 31 | 1009.3 |
| 20260902003529 | 99 | 210 | 0.0 | 0.0 | 0.00 | 0.00 | 0.00 | 31 | 1009.3 |
| 20260902003030 | 99 | 173 | 0.0 | 1.0 | 0.00 | 0.00 | 0.00 | 31 | 1009.4 |
| 20260902002530 | 99 | 153 | 0.0 | 1.0 | 0.00 | 0.00 | 0.00 | 31 | 1009.4 |
| 20260902002030 | 99 | 182 | 0.0 | 1.0 | 0.00 | 0.00 | 0.00 | 31 | 1009.4 |
| 20260902001529 | 99 | 223 | 0.0 | 5.0 | 0.00 | 0.00 | 0.00 | 31 | 1009.5 |
| 20260902001029 | 100 | 178 | 0.0 | 5.0 | 0.00 | 0.00 | 0.00 | 32 | 1009.4 |
| 20260902000530 | 100 | 226 | 0.0 | 1.0 | 0.00 | 0.00 | 0.00 | 32 | 1009.5 |
| 20260902000251 | 100 | 337 | 0.0 | 4.0 | 0.00 | 0.00 | 0.00 | 33 | 1009.4 |
| 20260901235529 | 100 | 190 | 0.0 | 4.0 | 0.00 | 0.00 | 0.00 | 32 | 1009.5 |
| 20260901235029 | 100 | 254 | 0.0 | 0.0 | 0.00 | 0.00 | 0.00 | 33 | 1009.6 |
| 20260901234529 | 99 | 255 | 0.0 | 0.0 | 0.00 | 0.00 | 0.00 | 33 | 1009.6 |
| 20260901234028 | 99 | 234 | 0.0 | 1.0 | 0.00 | 0.00 | 0.00 | 33 | 1009.7 |
| 20260901233529 | 99 | 235 | 0.0 | 1.0 | 0.00 | 0.00 | 0.00 | 33 | 1009.8 |
| 20260901233252 | 99 | 180 | 0.0 | 1.0 | 0.00 | 0.00 | 0.00 | 33 | 1009.8 |
| 20260901232529 | 99 | 153 | 0.0 | 0.0 | 0.00 | 0.00 | 0.00 | 34 | 1009.8 |
| 20260901232029 | 98 | 236 | 0.0 | 0.0 | 0.00 | 0.00 | 0.00 | 34 | 1009.8 |
| 20260901231529 | 98 | 9 | 0.0 | 0.0 | 0.00 | 0.00 | 0.00 | 32 | 1009.9 |
| 20260901231029 | 99 | 171 | 0.0 | 2.0 | 0.00 | 0.00 | 0.00 | 32 | 1010.0 |
| 20260901230529 | 99 | 194 | 0.0 | 9.0 | 0.00 | 0.00 | 0.00 | 33 | 1010.0 |
| 20260901230029 | 99 | 216 | 0.0 | 9.0 | 0.00 | 0.00 | 0.00 | 33 | 1010.1 |
| 20260901225529 | 99 | 188 | 0.0 | 5.0 | 0.00 | 0.00 | 0.00 | 33 | 1010.1 |
| 20260901225251 | 99 | 188 | 0.0 | 5.0 | 0.00 | 0.00 | 0.00 | 33 | 1010.2 |
| 20260901224529 | 99 | 212 | 0.0 | 1.0 | 0.00 | 0.00 | 0.00 | 33 | 1010.1 |
| 20260901224253 | 99 | 234 | 0.0 | 2.0 | 0.00 | 0.00 | 0.00 | 34 | 1010.1 |
| 20260901223757 | 99 | 230 | 0.0 | 2.0 | 0.00 | 0.00 | 0.00 | 33 | 1010.2 |
| 20260901223249 | 99 | 291 | 0.0 | 2.0 | 0.00 | 0.00 | 0.00 | 34 | 1010.2 |
| 20260901222529 | 98 | 259 | 0.0 | 2.0 | 0.00 | 0.00 | 0.00 | 34 | 1010.3 |
| 20260901222256 | 99 | 229 | 0.0 | 1.0 | 0.00 | 0.00 | 0.00 | 34 | 1010.3 |
| 20260901221530 | 99 | 247 | 0.0 | 2.0 | 0.00 | 0.00 | 0.00 | 34 | 1010.4 |
| 20260901221030 | 99 | 214 | 0.0 | 6.0 | 0.00 | 0.00 | 0.00 | 34 | 1010.4 |
| 20260901220529 | 99 | 150 | 0.0 | 6.0 | 0.00 | 0.00 | 0.00 | 34 | 1010.6 |
| 20260901220250 | 99 | 151 | 0.0 | 1.0 | 0.00 | 0.00 | 0.00 | 34 | 1010.7 |
| 20260901215529 | 99 | 193 | 0.0 | 0.0 | 0.00 | 0.00 | 0.00 | 35 | 1010.7 |
| 20260901215029 | 99 | 180 | 0.0 | 0.0 | 0.00 | 0.00 | 0.00 | 35 | 1010.8 |
| 20260901214528 | 98 | 212 | 0.0 | 1.0 | 0.00 | 0.00 | 0.00 | 36 | 1010.9 |
| 20260901214516 | 97 | 150 | 0.0 | 1.0 | 0.00 | 0.00 | 0.00 | 36 | 1011.0 |
| 20260901213529 | 98 | 130 | 0.0 | 6.0 | 0.00 | 0.00 | 0.00 | 36 | 1011.1 |
| 20260901213029 | 98 | 134 | 0.0 | 7.0 | 0.00 | 0.00 | 0.00 | 35 | 1011.2 |
| 20260901212529 | 97 | 234 | 0.0 | 7.0 | 0.00 | 0.00 | 0.00 | 36 | 1011.2 |
| 20260901212028 | 97 | 210 | 0.0 | 12.0 | 0.00 | 0.00 | 0.00 | 37 | 1011.3 |
| 20260901211529 | 97 | 52 | 0.0 | 12.0 | 0.00 | 0.00 | 0.00 | 37 | 1011.4 |
| 20260901211028 | 98 | 147 | 0.0 | 4.0 | 0.00 | 0.00 | 0.00 | 37 | 1011.5 |
| 20260901210529 | 98 | 198 | 0.0 | 4.0 | 0.00 | 0.00 | 0.00 | 37 | 1011.5 |
| 20260901210024 | 98 | 161 | 0.0 | 4.0 | 0.00 | 0.00 | 0.00 | 37 | 1011.6 |
| 20260901205519 | 97 | 202 | 0.0 | 7.0 | 0.00 | 0.00 | 0.00 | 36 | 1011.7 |
| 20260901205017 | 97 | 129 | 0.0 | 7.0 | 0.00 | 0.00 | 0.00 | 37 | 1011.8 |
| 20260901204517 | 97 | 205 | 0.0 | 6.0 | 0.00 | 0.00 | 0.00 | 37 | 1011.9 |
| 20260901204015 | 98 | 159 | 0.0 | 2.0 | 0.00 | 0.00 | 0.00 | 37 | 1012.0 |
| 20260901203738 | 97 | 167 | 0.0 | 2.0 | 0.00 | 0.00 | 0.00 | 37 | 1012.0 |
| 20260901203013 | 97 | 217 | 0.0 | 6.0 | 0.00 | 0.00 | 0.00 | 38 | 1012.1 |
| 20260901202514 | 97 | 169 | 0.0 | 6.0 | 0.00 | 0.00 | 0.00 | 38 | 1012.1 |
| 20260901202011 | 97 | 178 | 0.0 | 1.0 | 0.00 | 0.00 | 0.00 | 38 | 1012.1 |
| 20260901201509 | 96 | 127 | 0.0 | 8.0 | 0.00 | 0.00 | 0.00 | 38 | 1012.2 |
| 20260901201229 | 96 | 144 | 0.0 | 8.0 | 0.00 | 0.00 | 0.00 | 38 | 1012.3 |
| 20260901200509 | 96 | 190 | 0.0 | 4.0 | 0.00 | 0.00 | 0.00 | 39 | 1012.3 |
| 20260901200007 | 96 | 182 | 0.0 | 6.0 | 0.00 | 0.00 | 0.00 | 39 | 1012.4 |
| 20260901195507 | 96 | 215 | 0.0 | 6.0 | 0.00 | 0.00 | 0.00 | 39 | 1012.5 |
| 20260901195007 | 96 | 157 | 0.0 | 6.0 | 0.00 | 0.00 | 0.00 | 39 | 1012.5 |
| 20260901194507 | 95 | 157 | 0.0 | 6.0 | 0.00 | 0.00 | 0.00 | 39 | 1012.6 |
| 20260901194007 | 95 | 169 | 0.0 | 3.0 | 0.00 | 0.00 | 0.00 | 40 | 1012.6 |
| 20260901193504 | 95 | 114 | 0.0 | 3.0 | 0.00 | 0.00 | 0.00 | 40 | 1012.7 |
| 20260901193005 | 95 | 127 | 0.0 | 1.0 | 0.00 | 0.00 | 0.00 | 40 | 1012.8 |
| 20260901192506 | 95 | 167 | 0.0 | 0.0 | 0.00 | 0.00 | 0.00 | 40 | 1012.9 |
| 20260901192002 | 94 | 252 | 0.0 | 0.0 | 0.00 | 0.00 | 0.00 | 41 | 1012.9 |
| 20260901191501 | 94 | 167 | 0.0 | 0.0 | 0.00 | 0.00 | 0.00 | 40 | 1013.2 |
| 20260901190955 | 94 | 143 | 0.0 | 0.0 | 0.00 | 0.00 | 0.00 | 40 | 1013.4 |
| 20260901190448 | 95 | 164 | 0.0 | 1.0 | 0.00 | 0.00 | 0.00 | 40 | 1013.4 |
| 20260901185943 | 94 | 165 | 0.0 | 1.0 | 0.00 | 0.00 | 0.00 | 41 | 1013.4 |
| 20260901185444 | 94 | 146 | 0.0 | 1.0 | 0.00 | 0.00 | 0.00 | 40 | 1013.4 |
| 20260901184942 | 94 | 166 | 0.0 | 1.0 | 0.00 | 0.00 | 0.00 | 41 | 1013.5 |
| 20260901184440 | 93 | 155 | 0.0 | 4.0 | 0.00 | 0.00 | 0.00 | 42 | 1013.5 |
| 20260901183939 | 93 | 107 | 0.0 | 4.0 | 0.00 | 0.00 | 0.00 | 42 | 1013.6 |
| 20260901183700 | 93 | 131 | 0.0 | 1.0 | 0.00 | 0.00 | 0.00 | 42 | 1013.6 |
| 20260901182937 | 93 | 142 | 0.0 | 1.0 | 0.00 | 0.00 | 0.00 | 42 | 1013.7 |
| 20260901182437 | 92 | 191 | 0.0 | 0.0 | 0.00 | 0.00 | 0.00 | 42 | 1013.8 |
| 20260901181937 | 92 | 191 | 0.0 | 0.0 | 0.00 | 0.00 | 0.00 | 43 | 1013.8 |
| 20260901181437 | 92 | 51 | 0.0 | 0.0 | 0.00 | 0.00 | 0.00 | 42 | 1013.8 |
| 20260901180936 | 93 | 130 | 0.0 | 0.0 | 0.00 | 0.00 | 0.00 | 43 | 1013.9 |
| 20260901180436 | 92 | 221 | 0.0 | 0.0 | 0.00 | 0.00 | 0.00 | 43 | 1013.8 |
| 20260901180158 | 92 | 190 | 0.0 | 5.0 | 0.00 | 0.00 | 0.00 | 44 | 1014.0 |
| 20260901175434 | 92 | 140 | 0.0 | 5.0 | 0.00 | 0.00 | 0.00 | 45 | 1014.0 |
| 20260901174934 | 91 | 221 | 0.0 | 1.0 | 0.00 | 0.00 | 0.00 | 45 | 1014.0 |
| 20260901174434 | 91 | 140 | 0.0 | 1.0 | 0.00 | 0.00 | 0.00 | 46 | 1014.1 |
| 20260901173935 | 90 | 217 | 0.0 | 1.0 | 0.00 | 0.00 | 0.00 | 46 | 1014.1 |
| 20260901173435 | 90 | 130 | 0.0 | 2.0 | 0.00 | 0.00 | 0.00 | 46 | 1014.1 |
| 20260901172933 | 90 | 221 | 0.0 | 2.0 | 0.00 | 0.00 | 0.00 | 47 | 1014.2 |
| 20260901172432 | 89 | 189 | 0.0 | 7.0 | 0.00 | 0.00 | 0.00 | 47 | 1014.2 |
| 20260901171932 | 89 | 128 | 0.0 | 7.0 | 0.00 | 0.00 | 0.00 | 47 | 1014.3 |
| 20260901171432 | 89 | 168 | 0.0 | 2.0 | 0.00 | 0.00 | 0.00 | 46 | 1014.3 |
| 20260901170930 | 89 | 162 | 0.0 | 0.0 | 0.00 | 0.00 | 0.00 | 47 | 1014.3 |
| 20260901170430 | 88 | 167 | 1.0 | 9.0 | 0.00 | 0.00 | 0.00 | 49 | 1014.2 |
| 20260901165930 | 88 | 130 | 1.0 | 11.0 | 0.00 | 0.00 | 0.00 | 48 | 1014.2 |
| 20260901165651 | 88 | 144 | 0.0 | 11.0 | 0.00 | 0.00 | 0.00 | 48 | 1014.1 |
| 20260901164932 | 87 | 183 | 0.0 | 5.0 | 0.00 | 0.00 | 0.00 | 48 | 1014.0 |
| 20260901164431 | 87 | 160 | 0.0 | 5.0 | 0.00 | 0.00 | 0.00 | 49 | 1014.1 |
| 20260901163930 | 87 | 169 | 1.0 | 7.0 | 0.00 | 0.00 | 0.00 | 49 | 1014.0 |
| 20260901163431 | 87 | 116 | 1.0 | 9.0 | 0.00 | 0.00 | 0.00 | 49 | 1014.0 |
| 20260901162930 | 87 | 192 | 0.0 | 9.0 | 0.00 | 0.00 | 0.00 | 50 | 1014.0 |
| 20260901162432 | 86 | 156 | 0.0 | 2.0 | 0.00 | 0.00 | 0.00 | 50 | 1014.0 |
| 20260901161931 | 86 | 146 | 0.0 | 3.0 | 0.00 | 0.00 | 0.00 | 50 | 1014.0 |
| 20260901161430 | 86 | 150 | 0.0 | 3.0 | 0.00 | 0.00 | 0.00 | 50 | 1013.9 |
| 20260901160929 | 86 | 152 | 0.0 | 1.0 | 0.00 | 0.00 | 0.00 | 50 | 1013.9 |
| 20260901160655 | 86 | 155 | 0.0 | 1.0 | 0.00 | 0.00 | 0.00 | 50 | 1013.8 |
| 20260901155929 | 86 | 167 | 0.0 | 4.0 | 0.00 | 0.00 | 0.00 | 50 | 1013.9 |
| 20260901155655 | 86 | 129 | 0.0 | 4.0 | 0.00 | 0.00 | 0.00 | 51 | 1013.8 |
| 20260901154930 | 86 | 150 | 0.0 | 2.0 | 0.00 | 0.00 | 0.00 | 50 | 1013.8 |
| 20260901154655 | 86 | 169 | 0.0 | 1.0 | 0.00 | 0.00 | 0.00 | 50 | 1013.7 |
| 20260901153929 | 85 | 128 | 0.0 | 1.0 | 0.00 | 0.00 | 0.00 | 50 | 1013.7 |
| 20260901153429 | 85 | 151 | 0.0 | 1.0 | 0.00 | 0.00 | 0.00 | 49 | 1013.7 |
| 20260901152930 | 85 | 162 | 0.0 | 0.0 | 0.00 | 0.00 | 0.00 | 51 | 1013.6 |
| 20260901152428 | 85 | 61 | 0.0 | 0.0 | 0.00 | 0.00 | 0.00 | 52 | 1013.5 |
| 20260901151929 | 84 | 50 | 0.0 | 1.0 | 0.00 | 0.00 | 0.00 | 53 | 1013.5 |
| 20260901151429 | 83 | 44 | 0.0 | 1.0 | 0.00 | 0.00 | 0.00 | 54 | 1013.4 |
| 20260901150930 | 83 | 76 | 0.0 | 0.0 | 0.00 | 0.00 | 0.00 | 56 | 1013.5 |
| 20260901150429 | 83 | 5 | 0.0 | 0.0 | 0.00 | 0.01 | 0.00 | 59 | 1013.5 |
| 20260901145929 | 82 | 5 | 0.0 | 0.0 | 0.00 | 0.02 | 0.00 | 60 | 1013.4 |
| 20260901145429 | 82 | 5 | 0.0 | 0.0 | 0.00 | 0.03 | 0.00 | 62 | 1013.4 |
| 20260901144929 | 81 | 5 | 0.0 | 0.0 | 0.00 | 0.03 | 0.00 | 63 | 1013.5 |
| 20260901144428 | 81 | 5 | 0.0 | 0.0 | 0.00 | 0.03 | 0.00 | 64 | 1013.5 |
| 20260901143929 | 80 | 5 | 0.0 | 0.0 | 0.00 | 0.03 | 0.00 | 66 | 1013.5 |
| 20260901143429 | 80 | 5 | 0.0 | 0.0 | 0.00 | 0.03 | 0.00 | 67 | 1013.5 |
| 20260901142929 | 79 | 5 | 0.0 | 0.0 | 0.00 | 0.03 | 0.00 | 68 | 1013.5 |
| 20260901142429 | 79 | 5 | 0.0 | 0.0 | 0.00 | 0.04 | 0.00 | 68 | 1013.6 |
| 20260901141929 | 78 | 5 | 0.0 | 0.0 | 0.00 | 0.04 | 0.00 | 69 | 1013.5 |
| 20260901141428 | 78 | 5 | 0.0 | 0.0 | 0.00 | 0.06 | 0.00 | 70 | 1013.5 |
| 20260901140929 | 78 | 5 | 0.0 | 0.0 | 0.00 | 0.07 | 0.00 | 70 | 1013.5 |
| 20260901140652 | 77 | 5 | 0.0 | 0.0 | 0.00 | 0.09 | 0.00 | 69 | 1013.4 |
| 20260901135930 | 77 | 5 | 0.0 | 0.0 | 0.00 | 0.12 | 0.00 | 69 | 1013.4 |
| 20260901135429 | 77 | 5 | 0.0 | 0.0 | 0.00 | 0.13 | 0.00 | 69 | 1013.4 |
| 20260901134929 | 77 | 5 | 0.0 | 0.0 | 0.00 | 0.13 | 0.00 | 69 | 1013.3 |
| 20260901134429 | 77 | 5 | 0.0 | 0.0 | 0.00 | 0.13 | 0.00 | 69 | 1013.3 |
| 20260901133929 | 77 | 5 | 0.0 | 0.0 | 0.00 | 0.13 | 0.00 | 70 | 1013.3 |
| 20260901133647 | 77 | 5 | 0.0 | 0.0 | 0.00 | 0.13 | 0.00 | 70 | 1013.2 |
| 20260901133155 | 77 | 5 | 0.0 | 0.0 | 0.00 | 0.13 | 0.00 | 70 | 1013.0 |
| 20260901132421 | 77 | 5 | 0.0 | 0.0 | 0.00 | 0.13 | 0.00 | 69 | 1013.0 |
| 20260901131918 | 77 | 5 | 0.0 | 0.0 | 0.00 | 0.13 | 0.00 | 68 | 1012.8 |
| 20260901131859 | 77 | 5 | 0.0 | 0.0 | 0.00 | 0.13 | 0.00 | 69 | 1012.8 |
| 20260901130916 | 77 | 5 | 0.0 | 0.0 | 0.00 | 0.13 | 0.00 | 68 | 1012.8 |
| 20260901130641 | 77 | 5 | 0.0 | 0.0 | 0.00 | 0.13 | 0.00 | 68 | 1012.8 |
| 20260901125914 | 77 | 5 | 0.0 | 0.0 | 0.00 | 0.13 | 0.00 | 68 | 1012.8 |
| 20260901125412 | 77 | 5 | 0.0 | 0.0 | 0.00 | 0.13 | 0.00 | 68 | 1012.8 |
| 20260901124910 | 78 | 5 | 0.0 | 0.0 | 0.00 | 0.13 | 0.00 | 68 | 1012.8 |
| 20260901124632 | 78 | 5 | 0.0 | 0.0 | 0.00 | 0.13 | 0.00 | 68 | 1012.8 |
| 20260901124128 | 78 | 5 | 0.0 | 0.0 | 0.00 | 0.13 | 0.00 | 68 | 1012.8 |
| 20260901123406 | 78 | 5 | 0.0 | 0.0 | 0.00 | 0.13 | 0.00 | 68 | 1012.8 |
| 20260901122906 | 78 | 5 | 0.0 | 0.0 | 0.00 | 0.13 | 0.00 | 69 | 1012.6 |
| 20260901122407 | 78 | 5 | 0.0 | 0.0 | 0.00 | 0.13 | 0.00 | 68 | 1012.6 |
| 20260901121906 | 78 | 5 | 0.0 | 0.0 | 0.00 | 0.13 | 0.00 | 68 | 1012.7 |
| 20260901121404 | 78 | 5 | 0.0 | 0.0 | 0.00 | 0.13 | 0.00 | 67 | 1012.6 |
| 20260901120902 | 78 | 5 | 0.0 | 0.0 | 0.00 | 0.13 | 0.00 | 67 | 1012.6 |
| 20260901120402 | 78 | 5 | 0.0 | 0.0 | 0.00 | 0.13 | 0.00 | 66 | 1012.5 |
| 20260901115902 | 79 | 5 | 0.0 | 0.0 | 0.00 | 0.13 | 0.00 | 66 | 1012.5 |
| 20260901115402 | 79 | 5 | 0.0 | 0.0 | 0.00 | 0.13 | 0.00 | 65 | 1012.4 |
| 20260901114901 | 79 | 5 | 0.0 | 0.0 | 0.00 | 0.13 | 0.00 | 64 | 1012.4 |
| 20260901114402 | 79 | 5 | 0.0 | 0.0 | 0.00 | 0.13 | 0.00 | 64 | 1012.4 |
| 20260901113901 | 79 | 5 | 0.0 | 0.0 | 0.00 | 0.13 | 0.00 | 63 | 1012.4 |
| 20260901113401 | 79 | 5 | 0.0 | 0.0 | 0.00 | 0.13 | 0.00 | 64 | 1012.4 |
| 20260901112901 | 79 | 5 | 0.0 | 0.0 | 0.00 | 0.13 | 0.00 | 64 | 1012.3 |
| 20260901112401 | 80 | 0 | 0.0 | 0.0 | 0.00 | 0.13 | 0.00 | 63 | 1012.3 |
| 20260901112123 | 80 | 5 | 0.0 | 0.0 | 0.00 | 0.13 | 0.00 | 62 | 1012.3 |
| 20260901111402 | 79 | 9 | 0.0 | 0.0 | 0.00 | 0.13 | 0.00 | 62 | 1012.3 |
| 20260901111127 | 79 | 12 | 0.0 | 0.0 | 0.00 | 0.13 | 0.00 | 63 | 1012.3 |
| 20260901110401 | 78 | 12 | 0.0 | 0.0 | 0.00 | 0.13 | 0.00 | 64 | 1012.2 |
| 20260901105901 | 78 | 59 | 0.0 | 0.0 | 0.00 | 0.13 | 0.00 | 67 | 1012.2 |
| 20260901105401 | 78 | 60 | 0.0 | 0.0 | 0.00 | 0.13 | 0.00 | 67 | 1012.2 |
| 20260901104901 | 78 | 60 | 0.0 | 0.0 | 0.00 | 0.13 | 0.00 | 66 | 1012.3 |
| 20260901104401 | 78 | 60 | 0.0 | 0.0 | 0.00 | 0.13 | 0.00 | 66 | 1012.3 |
| 20260901103901 | 79 | 60 | 0.0 | 0.0 | 0.00 | 0.13 | 0.00 | 66 | 1012.3 |
| 20260901103401 | 79 | 60 | 0.0 | 0.0 | 0.00 | 0.13 | 0.00 | 65 | 1012.3 |
| 20260901102902 | 79 | 60 | 0.0 | 0.0 | 0.00 | 0.13 | 0.00 | 65 | 1012.3 |
| 20260901102401 | 79 | 60 | 0.0 | 0.0 | 0.00 | 0.13 | 0.00 | 64 | 1012.3 |
| 20260901102125 | 79 | 60 | 0.0 | 0.0 | 0.00 | 0.13 | 0.00 | 64 | 1012.4 |
| 20260901101629 | 79 | 60 | 0.0 | 0.0 | 0.00 | 0.13 | 0.00 | 63 | 1012.4 |
| 20260901100901 | 80 | 60 | 0.0 | 0.0 | 0.00 | 0.13 | 0.00 | 63 | 1012.4 |
| 20260901100401 | 80 | 60 | 0.0 | 0.0 | 0.00 | 0.13 | 0.00 | 62 | 1012.4 |
| 20260901100128 | 80 | 60 | 0.0 | 0.0 | 0.00 | 0.13 | 0.00 | 62 | 1012.4 |
| 20260901095401 | 80 | 60 | 0.0 | 0.0 | 0.00 | 0.13 | 0.00 | 61 | 1012.4 |
| 20260901094901 | 80 | 60 | 0.0 | 0.0 | 0.00 | 0.13 | 0.00 | 61 | 1012.4 |
| 20260901094401 | 80 | 60 | 0.0 | 0.0 | 0.00 | 0.13 | 0.00 | 60 | 1012.4 |
| 20260901093901 | 80 | 60 | 0.0 | 0.0 | 0.00 | 0.13 | 0.00 | 60 | 1012.4 |
| 20260901093402 | 80 | 60 | 0.0 | 0.0 | 0.00 | 0.13 | 0.00 | 60 | 1012.4 |
| 20260901092900 | 80 | 60 | 0.0 | 0.0 | 0.00 | 0.13 | 0.00 | 60 | 1012.3 |
| 20260901092401 | 80 | 60 | 0.0 | 0.0 | 0.00 | 0.13 | 0.00 | 60 | 1012.3 |
| 20260901092126 | 81 | 60 | 0.0 | 0.0 | 0.00 | 0.13 | 0.00 | 60 | 1012.4 |
| 20260901091401 | 81 | 60 | 0.0 | 0.0 | 0.00 | 0.13 | 0.00 | 59 | 1012.4 |
| 20260901091126 | 81 | 59 | 0.0 | 0.0 | 0.00 | 0.13 | 0.00 | 59 | 1012.4 |
| 20260901090854 | 81 | 59 | 0.0 | 0.0 | 0.00 | 0.13 | 0.00 | 59 | 1012.5 |
| 20260901085901 | 81 | 74 | 0.0 | 0.0 | 0.00 | 0.13 | 0.00 | 59 | 1012.6 |
| 20260901085402 | 81 | 38 | 0.0 | 0.0 | 0.00 | 0.13 | 0.00 | 58 | 1012.5 |
| 20260901084901 | 81 | 35 | 0.0 | 0.0 | 0.00 | 0.13 | 0.00 | 58 | 1012.5 |
| 20260901084402 | 81 | 35 | 0.0 | 0.0 | 0.00 | 0.13 | 0.00 | 58 | 1012.5 |
| 20260901084121 | 81 | 34 | 0.0 | 0.0 | 0.00 | 0.13 | 0.00 | 58 | 1012.5 |
| 20260901083401 | 81 | 28 | 0.0 | 0.0 | 0.00 | 0.13 | 0.00 | 58 | 1012.5 |
| 20260901082900 | 81 | 26 | 0.0 | 0.0 | 0.00 | 0.13 | 0.00 | 58 | 1012.6 |
| 20260901082401 | 81 | 25 | 0.0 | 0.0 | 0.00 | 0.13 | 0.00 | 58 | 1012.6 |
| 20260901081901 | 81 | 22 | 0.0 | 0.0 | 0.00 | 0.13 | 0.00 | 58 | 1012.6 |
| 20260901081401 | 81 | 23 | 0.0 | 4.0 | 0.00 | 0.13 | 0.00 | 58 | 1012.6 |
| 20260901081120 | 81 | 14 | 0.0 | 4.0 | 0.00 | 0.13 | 0.00 | 58 | 1012.6 |
| 20260901080402 | 81 | 9 | 0.0 | 0.0 | 0.00 | 0.13 | 0.00 | 58 | 1012.6 |
| 20260901075903 | 81 | 10 | 0.0 | 0.0 | 0.00 | 0.13 | 0.00 | 58 | 1012.6 |
| 20260901075401 | 81 | 20 | 0.0 | 0.0 | 0.00 | 0.13 | 0.00 | 58 | 1012.6 |
| 20260901074901 | 81 | 20 | 0.0 | 1.0 | 0.00 | 0.13 | 0.00 | 58 | 1012.6 |
| 20260901074401 | 81 | 16 | 0.0 | 1.0 | 0.00 | 0.13 | 0.00 | 58 | 1012.6 |
| 20260901073901 | 82 | 16 | 0.0 | 0.0 | 0.00 | 0.13 | 0.00 | 57 | 1012.5 |
| 20260901073628 | 82 | 348 | 0.0 | 0.0 | 0.00 | 0.13 | 0.00 | 57 | 1012.6 |
| 20260901072902 | 82 | 338 | 0.0 | 0.0 | 0.00 | 0.13 | 0.00 | 57 | 1012.6 |
| 20260901072401 | 82 | 40 | 0.0 | 0.0 | 0.00 | 0.13 | 0.00 | 56 | 1012.6 |
| 20260901071901 | 82 | 31 | 0.0 | 0.0 | 0.00 | 0.13 | 0.00 | 56 | 1012.5 |
| 20260901071625 | 82 | 57 | 0.0 | 0.0 | 0.00 | 0.13 | 0.00 | 55 | 1012.5 |
| 20260901070901 | 82 | 37 | 0.0 | 0.0 | 0.00 | 0.13 | 0.00 | 55 | 1012.4 |
| 20260901070629 | 83 | 47 | 0.0 | 0.0 | 0.00 | 0.13 | 0.00 | 54 | 1012.4 |
| 20260901065901 | 83 | 70 | 0.0 | 0.0 | 0.00 | 0.13 | 0.13 | 53 | 1012.5 |
| 20260901065403 | 83 | 88 | 0.0 | 0.0 | 0.00 | 0.13 | 0.13 | 53 | 1012.4 |
| 20260901064901 | 83 | 88 | 0.0 | 0.0 | 0.00 | 0.13 | 0.13 | 53 | 1012.3 |
| 20260901064402 | 83 | 11 | 0.0 | 0.0 | 0.00 | 0.13 | 0.13 | 53 | 1012.3 |
| 20260901063901 | 83 | 17 | 0.0 | 0.0 | 0.00 | 0.13 | 0.13 | 52 | 1012.3 |
| 20260901063401 | 83 | 74 | 0.0 | 1.0 | 0.00 | 0.13 | 0.13 | 52 | 1012.3 |
| 20260901062901 | 83 | 63 | 0.0 | 1.0 | 0.00 | 0.13 | 0.13 | 52 | 1012.2 |
| 20260901062401 | 83 | 62 | 0.0 | 1.0 | 0.00 | 0.13 | 0.13 | 52 | 1012.1 |
| 20260901061901 | 83 | 136 | 0.0 | 0.0 | 0.00 | 0.14 | 0.13 | 52 | 1012.1 |
| 20260901061402 | 83 | 163 | 0.0 | 0.0 | 0.00 | 0.14 | 0.13 | 52 | 1012.1 |
| 20260901060900 | 83 | 165 | 0.0 | 0.0 | 0.00 | 0.14 | 0.13 | 52 | 1012.1 |
| 20260901060401 | 83 | 162 | 0.0 | 0.0 | 0.00 | 0.14 | 0.13 | 52 | 1012.0 |
| 20260901055901 | 83 | 162 | 0.0 | 0.0 | 0.00 | 0.14 | 0.13 | 52 | 1012.0 |
| 20260901055401 | 83 | 162 | 0.0 | 0.0 | 0.00 | 0.15 | 0.13 | 53 | 1012.0 |
| 20260901054900 | 83 | 162 | 0.0 | 0.0 | 0.00 | 0.15 | 0.13 | 53 | 1012.0 |
| 20260901054401 | 83 | 162 | 0.0 | 0.0 | 0.00 | 0.15 | 0.13 | 53 | 1012.0 |
| 20260901054125 | 83 | 161 | 0.0 | 0.0 | 0.00 | 0.15 | 0.13 | 53 | 1012.0 |
| 20260901053401 | 83 | 161 | 0.0 | 0.0 | 0.00 | 0.15 | 0.13 | 53 | 1012.0 |
| 20260901052902 | 83 | 161 | 0.0 | 0.0 | 0.00 | 0.15 | 0.13 | 53 | 1012.0 |
| 20260901052626 | 83 | 161 | 0.0 | 1.0 | 0.00 | 0.15 | 0.13 | 52 | 1012.0 |
| 20260901051902 | 84 | 159 | 0.0 | 1.0 | 0.00 | 0.15 | 0.13 | 52 | 1011.9 |
| 20260901051401 | 84 | 178 | 0.0 | 0.0 | 0.00 | 0.15 | 0.13 | 51 | 1012.0 |
| 20260901050901 | 84 | 20 | 0.0 | 0.0 | 0.00 | 0.15 | 0.13 | 51 | 1012.0 |
| 20260901050839 | 84 | 279 | 0.0 | 0.0 | 0.00 | 0.15 | 0.13 | 51 | 1012.0 |
| 20260901045901 | 84 | 186 | 0.0 | 0.0 | 0.00 | 0.15 | 0.13 | 51 | 1011.9 |
| 20260901045401 | 84 | 174 | 0.0 | 0.0 | 0.00 | 0.15 | 0.13 | 51 | 1011.9 |
| 20260901044901 | 84 | 172 | 0.0 | 0.0 | 0.00 | 0.15 | 0.13 | 50 | 1011.9 |
| 20260901044401 | 84 | 159 | 0.0 | 1.0 | 0.00 | 0.15 | 0.13 | 50 | 1011.9 |
| 20260901044122 | 85 | 136 | 0.0 | 1.0 | 0.00 | 0.15 | 0.13 | 49 | 1011.9 |
| 20260901043402 | 85 | 139 | 0.0 | 1.0 | 0.00 | 0.15 | 0.13 | 48 | 1012.0 |
| 20260901042901 | 85 | 144 | 0.0 | 1.0 | 0.00 | 0.15 | 0.13 | 48 | 1011.9 |
| 20260901042402 | 85 | 117 | 0.0 | 1.0 | 0.00 | 0.15 | 0.13 | 47 | 1012.0 |
| 20260901041901 | 85 | 142 | 0.0 | 1.0 | 0.00 | 0.15 | 0.13 | 46 | 1011.9 |
| 20260901041626 | 85 | 172 | 0.0 | 1.0 | 0.00 | 0.15 | 0.13 | 45 | 1011.8 |
| 20260901040901 | 85 | 159 | 0.0 | 1.0 | 0.00 | 0.15 | 0.13 | 45 | 1011.8 |
| 20260901040402 | 85 | 138 | 0.0 | 1.0 | 0.00 | 0.15 | 0.13 | 46 | 1011.8 |
| 20260901035901 | 85 | 153 | 0.0 | 1.0 | 0.00 | 0.15 | 0.13 | 46 | 1011.8 |
| 20260901035401 | 85 | 150 | 0.0 | 0.0 | 0.00 | 0.15 | 0.13 | 47 | 1011.8 |